STARLINK-32346, 61849

Orbit data source: Space-Track

STARLINK-32346, 61849 is a payload satellite owned by SpaceX/Seattle (US) in LEO that was launched on Thu, 07 Nov 2024 UTC via an FALCON 9 launch vehicle from the Air Force Eastern Test Range (AFETR). Payload-class satellites include a variety of spacecraft equipped with specific instruments for various scientific and technological missions. These include communications satellites like Starlink; space stations such as the ISS; scientific satellites like the Hubble; Earth observation satellites from companies like Planet Labs, Umbra, and HawkEye 360; GPS; miniature CubeSats for education and research; and military/defense satellites.

Loading next visibility...
Identifier
61849, 2024-202E
Orbit
LEO
Country
Flag of USUS
Related business
Manufacturer
SpaceX/Seattle
Mission
Operational Commercial Communications
Bus & Motor
STARLINK V2M, Unknown motor
Mass
730 kg wet, ~700 kg dry
Launch date (UTC)
2024-11-07 (1 year ago)
Launch vehicle
FALCON 9
Launch site
Air Force Eastern Test Range (AFETR)
Object type
Payload
Rocket body
Debris
Shape & HBR
Box + 2 Pan, 17.7 m
Radar Cross Section
33.884 m², Large (>1 m²)

Expand to show TLE details & history
Last TLE update: 9 hours ago

TLE from 9 hours ago
0 STARLINK-32346
1 61849U 24202E   26035.39700881 -.00000952  00000-0 -25058-4 0  9992
2 61849  42.9999  54.9565 0001174 260.5493  99.5226 15.27585060 70366
Epoch: 2026-02-04T09:31Z
TLE epoch observation values (Epoch: 2026-02-04T09:31:41.561Z)
Latitude
-0°
Longitude
137.46915°
Altitude
482.943 km
Speed
7.626 km/s
True Right ascension
03h 39m 49s
True Declination
0° 00' 00"
Sunlit
Object was in daylight at epoch
Visualization orbit readout
Latitude
Unknown
Longitude
Unknown
Altitude
Unknown
Speed
Unknown
Apparent Right ascension
Unknown
Apparent Declination
Unknown
Sunlit
N/A
Visualization observer readout
Local Sidereal Time
20:37:33
Azimuth
Unknown
Elevation
Unknown
Doppler factor
Unknown
Orbital elements
Apogee altitude
485.785 km
Perigee altitude
484.173 km
Semi-major axis
6,863.116 km
Eccentricity
0.00012
Inclination
42.9999°
RAAN
54.9565°
Arg. of periapsis
260.5493°
True anomaly
99.53587°
Mean anomaly
99.5226°
Eccentric anomaly
99.52923°
Mean motion
3.81734 °/min
Orbital period
94.31 mins
BSTAR
-0.000025058
Loading maneuver chart data...
Computing Atmospheric mass density...
Loading historical data...
Loading historical data...
Loading historical data...
Loading historical data...
Loading historical data...
Loading historical data...
Loading historical data...

Documentation

Showing up to 5 results
|